[Date Prev][Date Next][Thread Prev][Thread Next] - [Date Index][Thread Index][Author Index]

2 Line ISS Keps 11-9




ISS 
1 25544U 98067A   01313.15658565  .00072341  00000-0  86702-3 0  7046
2 25544  51.6415  79.6604 0009457 312.2262  54.5716 15.60221238169700


----
Via the sarex mailing list at AMSAT.ORG courtesy of AMSAT-NA.
To unsubscribe, send "unsubscribe sarex" to Majordomo@amsat.org



AMSAT Top AMSAT Home